• în România
  • Lista ţărilor
  • Pe 7 zile
  • Temperatura apei
  • Hartă satelitară
  • Meteo pe hartă
  • Widget-uri
  • user-avatar
    Intrare

    Meteo pe oră la Yulara

    Astăzi, 28 Mai, Duminică

    Timp Temperatura Precipitaţii Vânt Presiune Umiditate
    00:00 +20°C° 0 mm 3 m/s 721 mmHg 29%
    01:00 +20°C° 0 mm 3 m/s 721 mmHg 30%
    02:00 +19°C° 0 mm 4 m/s 721 mmHg 31%
    03:00 +18°C° 0 mm 4 m/s 720 mmHg 33%
    04:00 +18°C° 0 mm 4 m/s 721 mmHg 35%
    05:00 +17°C° 0 mm 4 m/s 721 mmHg 37%
    06:00 +15°C° 0 mm 4 m/s 721 mmHg 39%
    07:00 +16°C° 0 mm 5 m/s 721 mmHg 39%
    08:00 +17°C° 0 mm 5 m/s 722 mmHg 39%
    09:00 +19°C° 0 mm 6 m/s 722 mmHg 38%
    10:00 +20°C° 0 mm 5 m/s 722 mmHg 34%
    11:00 +21°C° 0 mm 5 m/s 722 mmHg 30%
    12:00 +23°C° 0 mm 5 m/s 722 mmHg 27%
    13:00 +23°C° 0 mm 4 m/s 721 mmHg 26%
    14:00 +25°C° 0 mm 4 m/s 721 mmHg 24%
    15:00 +27°C° 0 mm 1 m/s 720 mmHg 21%
    16:00 +26°C° 0 mm 2 m/s 720 mmHg 24%
    17:00 +25°C° 0 mm 3 m/s 720 mmHg 27%
    18:00 +22°C° 0 mm 3 m/s 720 mmHg 30%
    19:00 +21°C° 0 mm 4 m/s 721 mmHg 33%
    20:00 +21°C° 0 mm 5 m/s 721 mmHg 37%
    21:00 +20°C° 0 mm 5 m/s 721 mmHg 41%
    22:00 +19°C° 0 mm 5 m/s 722 mmHg 43%
    23:00 +17°C° 0 mm 5 m/s 722 mmHg 44%

    Mâine, 29 Mai, Luni

    Timp Temperatura Precipitaţii Vânt Presiune Umiditate
    00:00 +17°C° 0 mm 5 m/s 722 mmHg 46%
    01:00 +16°C° 0 mm 5 m/s 722 mmHg 47%
    02:00 +15°C° 0 mm 5 m/s 722 mmHg 47%
    03:00 +15°C° 0 mm 5 m/s 722 mmHg 48%
    04:00 +15°C° 0 mm 5 m/s 722 mmHg 50%
    05:00 +14°C° 0 mm 4 m/s 722 mmHg 51%
    06:00 +14°C° 0 mm 4 m/s 723 mmHg 52%
    07:00 +14°C° 0 mm 5 m/s 723 mmHg 51%
    08:00 +15°C° 0 mm 5 m/s 723 mmHg 50%
    09:00 +15°C° 0 mm 6 m/s 724 mmHg 49%
    10:00 +17°C° 0 mm 6 m/s 724 mmHg 45%
    11:00 +19°C° 0 mm 6 m/s 723 mmHg 41%
    12:00 +20°C° 0 mm 5 m/s 723 mmHg 37%
    13:00 +21°C° 0 mm 5 m/s 723 mmHg 36%
    14:00 +22°C° 0 mm 4 m/s 722 mmHg 34%
    15:00 +22°C° 0 mm 3 m/s 722 mmHg 32%
    16:00 +22°C° 0 mm 3 m/s 722 mmHg 34%
    17:00 +21°C° 0 mm 3 m/s 722 mmHg 36%
    18:00 +20°C° 0 mm 3 m/s 722 mmHg 38%
    19:00 +20°C° 0 mm 3 m/s 723 mmHg 39%
    20:00 +19°C° 0 mm 3 m/s 723 mmHg 41%
    21:00 +19°C° 0 mm 4 m/s 724 mmHg 42%
    22:00 +18°C° 0 mm 4 m/s 724 mmHg 44%
    23:00 +18°C° 0 mm 4 m/s 724 mmHg 46%

    Poimâine, 30 Mai, Marţi

    Timp Temperatura Precipitaţii Vânt Presiune Umiditate
    00:00 +17°C° 0 mm 4 m/s 724 mmHg 48%
    01:00 +17°C° 0 mm 4 m/s 724 mmHg 49%
    02:00 +15°C° 0 mm 4 m/s 724 mmHg 51%
    03:00 +15°C° 0 mm 4 m/s 724 mmHg 52%
    04:00 +14°C° 0 mm 4 m/s 724 mmHg 53%
    05:00 +13°C° 0 mm 4 m/s 724 mmHg 54%
    06:00 +13°C° 0 mm 4 m/s 724 mmHg 55%
    07:00 +13°C° 0 mm 4 m/s 724 mmHg 52%
    08:00 +14°C° 0 mm 5 m/s 725 mmHg 48%
    09:00 +15°C° 0 mm 6 m/s 725 mmHg 45%
    10:00 +16°C° 0 mm 5 m/s 725 mmHg 42%
    11:00 +17°C° 0 mm 5 m/s 725 mmHg 39%
    12:00 +20°C° 0 mm 5 m/s 725 mmHg 36%
    13:00 +20°C° 0 mm 5 m/s 725 mmHg 35%
    14:00 +21°C° 0 mm 5 m/s 724 mmHg 34%
    15:00 +21°C° 0 mm 5 m/s 724 mmHg 34%
    16:00 +20°C° 0 mm 4 m/s 724 mmHg 36%
    17:00 +19°C° 0 mm 4 m/s 724 mmHg 38%
    18:00 +19°C° 0 mm 4 m/s 724 mmHg 40%
    19:00 +18°C° 0 mm 4 m/s 724 mmHg 43%
    20:00 +17°C° 0 mm 4 m/s 725 mmHg 45%
    21:00 +15°C° 0 mm 5 m/s 725 mmHg 47%
    22:00 +15°C° 0 mm 5 m/s 726 mmHg 49%
    23:00 +14°C° 0 mm 4 m/s 726 mmHg 51%

    31 Mai, Miercuri

    Timp Temperatura Precipitaţii Vânt Presiune Umiditate
    00:00 +14°C° 0 mm 4 m/s 726 mmHg 52%
    01:00 +13°C° 0 mm 4 m/s 726 mmHg 54%
    02:00 +12°C° 0 mm 4 m/s 726 mmHg 56%
    03:00 +12°C° 0 mm 4 m/s 725 mmHg 57%
    04:00 +11°C° 0 mm 4 m/s 726 mmHg 59%
    05:00 +11°C° 0 mm 4 m/s 726 mmHg 61%
    06:00 +9°C° 0 mm 5 m/s 726 mmHg 62%
    07:00 +10°C° 0 mm 5 m/s 726 mmHg 59%
    08:00 +11°C° 0 mm 6 m/s 727 mmHg 56%
    09:00 +12°C° 0 mm 7 m/s 727 mmHg 53%
    10:00 +14°C° 0 mm 7 m/s 727 mmHg 48%
    11:00 +15°C° 0 mm 6 m/s 726 mmHg 42%
    12:00 +17°C° 0 mm 6 m/s 726 mmHg 36%
    13:00 +17°C° 0 mm 6 m/s 726 mmHg 34%
    14:00 +19°C° 0 mm 6 m/s 725 mmHg 31%
    15:00 +20°C° 0 mm 6 m/s 724 mmHg 29%
    16:00 +19°C° 0 mm 5 m/s 725 mmHg 32%
    17:00 +17°C° 0 mm 5 m/s 725 mmHg 34%
    18:00 +17°C° 0 mm 4 m/s 725 mmHg 37%
    19:00 +15°C° 0 mm 4 m/s 726 mmHg 40%
    20:00 +14°C° 0 mm 4 m/s 726 mmHg 42%
    21:00 +14°C° 0 mm 5 m/s 727 mmHg 44%
    22:00 +13°C° 0 mm 5 m/s 727 mmHg 47%
    23:00 +13°C° 0 mm 5 m/s 727 mmHg 49%

    1 Iunie, Joi

    Timp Temperatura Precipitaţii Vânt Presiune Umiditate
    00:00 +12°C° 0 mm 5 m/s 727 mmHg 51%
    01:00 +12°C° 0 mm 5 m/s 726 mmHg 53%
    02:00 +10°C° 0 mm 5 m/s 726 mmHg 55%
    03:00 +10°C° 0 mm 5 m/s 726 mmHg 58%
    04:00 +9°C° 0 mm 5 m/s 726 mmHg 61%
    05:00 +9°C° 0 mm 5 m/s 726 mmHg 64%
    06:00 +8°C° 0 mm 5 m/s 726 mmHg 67%
    07:00 +9°C° 0 mm 6 m/s 727 mmHg 64%
    08:00 +10°C° 0 mm 6 m/s 727 mmHg 62%
    09:00 +11°C° 0 mm 7 m/s 727 mmHg 59%
    10:00 +12°C° 0 mm 7 m/s 727 mmHg 51%
    11:00 +15°C° 0 mm 7 m/s 727 mmHg 43%
    12:00 +17°C° 0 mm 7 m/s 726 mmHg 35%
    13:00 +17°C° 0 mm 7 m/s 726 mmHg 30%
    14:00 +18°C° 0 mm 7 m/s 725 mmHg 26%
    15:00 +20°C° 0 mm 6 m/s 725 mmHg 21%
    16:00 +17°C° 0 mm 6 m/s 725 mmHg 21%
    17:00 +16°C° 0 mm 5 m/s 725 mmHg 21%
    18:00 +15°C° 0 mm 5 m/s 725 mmHg 21%
    19:00 +14°C° 0 mm 5 m/s 726 mmHg 22%
    20:00 +13°C° 0 mm 5 m/s 726 mmHg 22%
    21:00 +12°C° 0 mm 5 m/s 727 mmHg 23%
    22:00 +12°C° 0 mm 5 m/s 727 mmHg 25%
    23:00 +10°C° 0 mm 5 m/s 727 mmHg 28%

    2 Iunie, Vineri

    Timp Temperatura Precipitaţii Vânt Presiune Umiditate
    00:00 +9°C° 0 mm 5 m/s 727 mmHg 30%
    01:00 +9°C° 0 mm 5 m/s 727 mmHg 32%
    02:00 +8°C° 0 mm 5 m/s 726 mmHg 34%
    03:00 +7°C° 0 mm 5 m/s 726 mmHg 37%
    04:00 +7°C° 0 mm 4 m/s 727 mmHg 38%
    05:00 +6°C° 0 mm 4 m/s 727 mmHg 40%
    06:00 +6°C° 0 mm 4 m/s 727 mmHg 42%
    07:00 +7°C° 0 mm 5 m/s 727 mmHg 39%
    08:00 +8°C° 0 mm 6 m/s 727 mmHg 36%
    09:00 +9°C° 0 mm 6 m/s 727 mmHg 34%
    10:00 +10°C° 0 mm 6 m/s 727 mmHg 29%
    11:00 +13°C° 0 mm 6 m/s 726 mmHg 25%
    12:00 +15°C° 0 mm 6 m/s 726 mmHg 20%
    13:00 +16°C° 0 mm 6 m/s 725 mmHg 19%
    14:00 +17°C° 0 mm 6 m/s 725 mmHg 17%
    15:00 +19°C° 0 mm 6 m/s 724 mmHg 15%
    16:00 +17°C° 0 mm 5 m/s 725 mmHg 17%
    17:00 +15°C° 0 mm 5 m/s 725 mmHg 19%
    18:00 +14°C° 0 mm 4 m/s 725 mmHg 21%
    19:00 +13°C° 0 mm 5 m/s 725 mmHg 22%
    20:00 +12°C° 0 mm 5 m/s 726 mmHg 24%
    21:00 +12°C° 0 mm 5 m/s 726 mmHg 25%
    22:00 +10°C° 0 mm 5 m/s 726 mmHg 26%
    23:00 +9°C° 0 mm 5 m/s 726 mmHg 28%
    Arată mai mult